Weather History for De Queen, AR

Change the Weather History Date:

Wednesday, April 17, 2013

  Actual Average Record
Temperature  
Mean Temperature 80 °F 62 °F  
Max Temperature 86 °F 74 °F 89 °F (2006)
Min Temperature 73 °F 49 °F 27 °F (1951)
Degree Days  
Heating Degree Days 0 5  
Month to date heating degree days 112 113  
Since 1 July heating degree days 2893 2981  
Cooling Degree Days 15 1  
Month to date cooling degree days 49 17  
Year to date cooling degree days 53 28  
Growing Degree Days 28 (Base 50)    
Moisture  
Dew Point 67 °F    
Average Humidity 69    
Maximum Humidity 87    
Minimum Humidity 51    
Precipitation  
Precipitation 0.00 in 0.13 in 3.53 in (1943)
Month to date precipitation 1.08 1.94  
Year to date precipitation 6.58 13.58  
Snow  
Snow 0.00 in - - ()
Month to date snowfall 0.0  
Since 1 July snowfall 4.5  
Snow Depth 0.00 in    
Sea Level Pressure  
Sea Level Pressure 29.84 in    
Wind  
Wind Speed 10 mph (SSE)    
Max Wind Speed 21 mph    
Max Gust Speed 31 mph    
Visibility 9 miles    
Events      
T = Trace of Precipitation, MM = Missing Value Source: NWS Daily Summary

Daily Weather History Graph

Daily Weather History Graph

Search for Another Location

Airport:

Trip Planner

Search our weather history database for the weather conditions in past years. The results will help you decide how hot, cold, wet, or windy it might be!

Date:

Astronomy

Apr. 17, 2013 Rise Set
Actual Time 6:43 AM CDT 7:50 PM CDT
Civil Twilight 6:18 AM CDT 8:16 PM CDT
Nautical Twilight 5:47 AM CDT 8:47 PM CDT
Astronomical Twilight 5:15 AM CDT 9:19 PM CDT
Moon 12:03 PM CDT 1:23 AM CDT
Length of Visible Light 13h 58m
Length of Day
13h 06m
Waxing Crescent, 42% of the Moon is Illuminated
Apr 17
Waxing Crescent
Apr 18
First Quarter
Apr 25
Full
May 2
Last Quarter
May 9
New

Hourly Weather History & Observations

Time (CDT) Temp. Heat Index Dew Point Humidity Pressure Visibility Wind Dir Wind Speed Gust Speed Precip Events Conditions
12:53 AM 75.0 °F - 69.1 °F 82% 29.92 in 9.0 mi ESE 5.8 mph - N/A   Overcast
1:53 AM 73.0 °F - 69.1 °F 87% 29.92 in 8.0 mi East 4.6 mph - N/A   Mostly Cloudy
2:53 AM 73.9 °F - 69.1 °F 85% 29.91 in 8.0 mi SSE 3.5 mph - N/A   Overcast
3:53 AM 73.0 °F - 70.0 °F 90% 29.91 in 6.0 mi ESE 4.6 mph - N/A   Overcast
4:53 AM 73.9 °F - 70.0 °F 87% 29.91 in 6.0 mi SE 4.6 mph - N/A   Overcast
5:53 AM 73.9 °F - 70.0 °F 87% 29.91 in 7.0 mi SSE 6.9 mph - N/A   Overcast
6:26 AM 73.9 °F - 70.0 °F 87% 29.93 in 7.0 mi SSE 5.8 mph - N/A   Overcast
6:41 AM 73.9 °F - 70.0 °F 87% 29.93 in 7.0 mi SSE 6.9 mph - N/A   Overcast
6:53 AM 73.9 °F - 70.0 °F 87% 29.92 in 7.0 mi South 8.1 mph - N/A   Overcast
7:53 AM 73.9 °F - 69.1 °F 85% 29.93 in 6.0 mi South 5.8 mph - N/A   Haze
8:43 AM 75.9 °F - 69.1 °F 79% 29.94 in 7.0 mi South 6.9 mph - N/A   Mostly Cloudy
9:53 AM 77.0 °F - 69.1 °F 76% 29.92 in 8.0 mi SSE 6.9 mph 19.6 mph N/A   Mostly Cloudy
10:24 AM 77.0 °F - 68.0 °F 74% 29.92 in 9.0 mi South 10.4 mph - N/A   Scattered Clouds
10:53 AM 78.1 °F - 66.9 °F 68% 29.91 in 9.0 mi South 15.0 mph 21.9 mph N/A   Scattered Clouds
11:46 AM 81.0 °F 83.8 °F 68.0 °F 65% 29.90 in 10.0 mi South 16.1 mph 21.9 mph N/A   Mostly Cloudy
11:53 AM 81.0 °F 83.8 °F 68.0 °F 65% 29.88 in 10.0 mi South 12.7 mph 21.9 mph N/A   Mostly Cloudy
12:00 PM 81.0 °F 83.8 °F 68.0 °F 65% 29.89 in 10.0 mi South 13.8 mph 23.0 mph N/A   Mostly Cloudy
12:53 PM 82.9 °F 85.0 °F 66.0 °F 56% 29.85 in 9.0 mi South 17.3 mph 25.3 mph N/A   Scattered Clouds
1:53 PM 84.0 °F 85.4 °F 64.0 °F 51% 29.81 in 10.0 mi SSE 16.1 mph 31.1 mph N/A   Mostly Cloudy
2:53 PM 84.0 °F 85.8 °F 64.9 °F 53% 29.79 in 10.0 mi SSE 15.0 mph 23.0 mph N/A   Mostly Cloudy
3:53 PM 84.9 °F 86.6 °F 64.9 °F 51% 29.75 in 10.0 mi South 13.8 mph 24.2 mph N/A   Mostly Cloudy
4:53 PM 84.0 °F 85.8 °F 64.9 °F 53% 29.74 in 10.0 mi SSE 9.2 mph 18.4 mph N/A   Mostly Cloudy
5:53 PM 84.9 °F 86.1 °F 64.0 °F 49% 29.72 in 10.0 mi SSE 13.8 mph 23.0 mph N/A   Scattered Clouds
6:53 PM 82.9 °F 84.0 °F 63.0 °F 51% 29.71 in 10.0 mi SSE 11.5 mph 21.9 mph N/A   Partly Cloudy
7:53 PM 82.0 °F 83.4 °F 64.0 °F 54% 29.70 in 10.0 mi South 8.1 mph 17.3 mph N/A   Scattered Clouds
8:53 PM 81.0 °F 83.0 °F 66.0 °F 60% 29.70 in 10.0 mi South 12.7 mph 23.0 mph N/A   Scattered Clouds
9:53 PM 80.1 °F 82.3 °F 66.9 °F 64% 29.71 in 10.0 mi South 12.7 mph 20.7 mph N/A   Overcast
10:53 PM 79.0 °F - 66.9 °F 66% 29.71 in 10.0 mi South 9.2 mph - N/A   Overcast
11:53 PM 78.1 °F - 66.0 °F 66% 29.70 in 10.0 mi South 11.5 mph 25.3 mph N/A   Mostly Cloudy